Location: Beuerbach
(48.1459°N, 10.9174°E)
Time: 19:43:24
(UTC+00:00)

Cosmos 1400 Rocket - Pass Details

Date: 23 May 2024
Orbit: 500 x 544 km, 81.1° (Epoch: 24 June)

Event Time Altitude Azimuth Distance (km) Brightness Sun altitude
Exits shadow 00:33:34 31° 256° (WSW) 978 3.8 -18.9°
Maximum altitude 00:34:33 36° 288° (WNW) 884 3.8 -18.8°
Drops below altitude 10° 00:38:15 10° 356° (N) 1,817 6.4 -18.6°
Sets 00:40:34 0° 5° (N) 2,709 7.8 -18.5°
